Weather in Mednogorsk

Russia / Orenburg Oblast     51°24′13″N   57°34′59″E
temp.,
°C
wind,
m/s
gust,
m/s
humid.,
%
clouds,
%
prec.,
mm/h
press.,
hPa
HPBL,
m
25 february, thu
thu2523:00−23nw1297100 0.6 102320
02:00−26wnw229756 0.0 102520
05:00−27wnw129856 0.0 102719
08:00−29wnw111000 0.0 103119
11:00−24w22940 0.0 1033145
14:00−21wsw228940 0.0 1033225
17:00−22wsw349429 0.0 1034260
20:00−29wsw2210021 0.0 103519
26 february, fri
fri2623:00−30sw1210018 0.0 103519
02:00−30ssw2210070 0.0 103419
05:00−27s229685 0.0 103367
08:00−25sse2495100 0.0 1030132
11:00−20sse369699 0.1 1030266
14:00−17sse579499 0.3 1027417
17:00−15sse589499 0.6 1025463
20:00−15sse41095100 0.6 1024479
27 february, sat
sat2723:00−15sse41095100 1.0 1022398
02:00−15sse41195100 0.3 1019355
05:00−13sse41195100 0.8 1016385
08:00−11sse61494100 0.8 1012450
11:00−7s81595100 3.9 1009559
14:00−3ssw81396100 4.3 1006687
17:000ssw71299100 6.1 1004505
20:000wsw61098100 1.3 1004519
28 february, sun
sun2823:000sw61198100 1.8 1004534
02:000sw61198100 1.0 1003637
05:00−1wsw61098100 2.3 1003643
08:00−2wsw61097100 0.9 1003530
11:00−2wsw6996100 1.8 1004633
14:00−1wsw61094100 0.4 1005828
17:00−2sw71195100 1.1 1005726
20:00−2sw61197100 0.9 1006621
1 march, mon
mon123:00−3wsw6997100 2.1 1008467
02:00−13wsw3798100 0.3 1010180
05:00−16wsw3498100 0.4 101298
08:00−18wsw23100100 0.1 101432
11:00−16w3496100 0.1 1016240
14:00−13w3494100 0.1 1016298
17:00−13w3594100 0.1 1017307
20:00−17w3598100 0.1 1018108